TimeAKST,TemperatureF,Dew PointF,Humidity,Sea Level PressureIn,VisibilityMPH,Wind Direction,Wind SpeedMPH,Gust SpeedMPH,PrecipitationIn,Events,Conditions,WindDirDegrees,DateUTC
12:16 AM,-36.4,-43.6,67,29.73,10.0,Calm,Calm,-,N/A,,Clear,0,2012-12-17 09:16:00
12:36 AM,-36.4,-43.6,67,29.73,10.0,Calm,Calm,-,N/A,,Clear,0,2012-12-17 09:36:00
12:56 AM,-36.4,-43.6,67,29.74,10.0,Calm,Calm,-,N/A,,Clear,0,2012-12-17 09:56:00
1:16 AM,-36.4,-43.6,67,29.74,10.0,Calm,Calm,-,N/A,,Clear,0,2012-12-17 10:16:00
1:36 AM,-36.4,-43.6,67,29.75,10.0,Calm,Calm,-,N/A,,Clear,0,2012-12-17 10:36:00
1:56 AM,-36.4,-41.8,75,29.75,10.0,Calm,Calm,-,N/A,,Clear,0,2012-12-17 10:56:00
2:16 AM,-36.4,-43.6,67,29.75,10.0,Calm,Calm,-,N/A,,Clear,0,2012-12-17 11:16:00
2:36 AM,-36.4,-43.6,67,29.75,10.0,Calm,Calm,-,N/A,,Clear,0,2012-12-17 11:36:00
2:56 AM,-36.4,-43.6,67,29.75,10.0,Calm,Calm,-,N/A,,Clear,0,2012-12-17 11:56:00
3:16 AM,-36.4,-41.8,75,29.75,10.0,Calm,Calm,-,N/A,,Clear,0,2012-12-17 12:16:00
3:36 AM,-36.4,-41.8,75,29.75,10.0,Calm,Calm,-,N/A,,Clear,0,2012-12-17 12:36:00
3:56 AM,-36.4,-41.8,75,29.75,10.0,Calm,Calm,-,N/A,,Clear,0,2012-12-17 12:56:00
4:16 AM,-36.4,-43.6,67,29.75,10.0,Calm,Calm,-,N/A,,Clear,0,2012-12-17 13:16:00
4:36 AM,-36.4,-43.6,67,29.75,10.0,Calm,Calm,-,N/A,,Clear,0,2012-12-17 13:36:00
4:56 AM,-36.4,-43.6,67,29.75,10.0,Calm,Calm,-,N/A,,Clear,0,2012-12-17 13:56:00
5:16 AM,-38.2,-43.6,74,29.75,10.0,Calm,Calm,-,N/A,,Clear,0,2012-12-17 14:16:00
5:36 AM,-36.4,-41.8,75,29.74,10.0,Calm,Calm,-,N/A,,Clear,0,2012-12-17 14:36:00
5:56 AM,-36.4,-43.6,67,29.75,10.0,Calm,Calm,-,N/A,,Clear,0,2012-12-17 14:56:00
6:16 AM,-36.4,-41.8,75,29.75,10.0,Calm,Calm,-,N/A,,Clear,0,2012-12-17 15:16:00
6:36 AM,-36.4,-43.6,67,29.75,10.0,Calm,Calm,-,N/A,,Clear,0,2012-12-17 15:36:00
6:56 AM,-36.4,-41.8,75,29.74,10.0,Calm,Calm,-,N/A,,Clear,0,2012-12-17 15:56:00
7:16 AM,-36.4,-43.6,67,29.74,10.0,Calm,Calm,-,N/A,,Clear,0,2012-12-17 16:16:00
7:36 AM,-36.4,-41.8,75,29.74,10.0,Calm,Calm,-,N/A,,Clear,0,2012-12-17 16:36:00
7:56 AM,-36.4,-41.8,75,29.74,10.0,Calm,Calm,-,N/A,,Clear,0,2012-12-17 16:56:00
8:16 AM,-36.4,-41.8,75,29.73,10.0,Calm,Calm,-,N/A,,Clear,0,2012-12-17 17:16:00
8:36 AM,-36.4,-41.8,75,29.73,10.0,Calm,Calm,-,N/A,,Clear,0,2012-12-17 17:36:00
8:56 AM,-36.4,-43.6,67,29.73,10.0,Calm,Calm,-,N/A,,Clear,0,2012-12-17 17:56:00
9:16 AM,-36.4,-43.6,67,29.72,10.0,Calm,Calm,-,N/A,,Clear,0,2012-12-17 18:16:00
9:36 AM,-36.4,-43.6,67,29.72,10.0,Calm,Calm,-,N/A,,Clear,0,2012-12-17 18:36:00
9:56 AM,-36.4,-41.8,75,29.71,10.0,Calm,Calm,-,N/A,,Clear,0,2012-12-17 18:56:00
10:16 AM,-36.4,-43.6,67,29.71,10.0,Calm,Calm,-,N/A,,Clear,0,2012-12-17 19:16:00
10:36 AM,-36.4,-41.8,75,29.70,10.0,Calm,Calm,-,N/A,,Clear,0,2012-12-17 19:36:00
10:56 AM,-36.4,-41.8,75,29.71,10.0,Calm,Calm,-,N/A,,Clear,0,2012-12-17 19:56:00
11:16 AM,-34.6,-38.2,82,29.70,10.0,Calm,Calm,-,N/A,,Clear,0,2012-12-17 20:16:00
11:36 AM,-34.6,-40.0,75,29.70,9.0,Calm,Calm,-,N/A,,Clear,0,2012-12-17 20:36:00
11:56 AM,-34.6,-41.8,68,29.70,10.0,Calm,Calm,-,N/A,,Clear,0,2012-12-17 20:56:00
12:16 PM,-34.6,-41.8,68,29.69,10.0,Calm,Calm,-,N/A,,Clear,0,2012-12-17 21:16:00
12:36 PM,-32.8,-38.2,75,29.68,10.0,Calm,Calm,-,N/A,,Clear,0,2012-12-17 21:36:00
12:56 PM,-32.8,-38.2,75,29.68,10.0,Calm,Calm,-,N/A,,Clear,0,2012-12-17 21:56:00
3:36 PM,-32.8,-38.2,75,29.63,10.0,Calm,Calm,-,N/A,,Clear,0,2012-12-18 00:36:00
3:56 PM,-32.8,-38.2,75,29.62,10.0,Calm,Calm,-,N/A,,Clear,0,2012-12-18 00:56:00
4:16 PM,-31.0,-36.4,75,29.62,10.0,Calm,Calm,-,N/A,,Clear,0,2012-12-18 01:16:00
4:36 PM,-32.8,-38.2,75,29.61,10.0,South,3.5,-,N/A,,Clear,180,2012-12-18 01:36:00
4:56 PM,-32.8,-36.4,83,29.61,10.0,Calm,Calm,-,N/A,,Clear,0,2012-12-18 01:56:00
5:16 PM,-32.8,-36.4,83,29.60,10.0,Calm,Calm,-,N/A,,Clear,0,2012-12-18 02:16:00
5:36 PM,-32.8,-38.2,75,29.60,10.0,Calm,Calm,-,N/A,,Clear,0,2012-12-18 02:36:00
5:56 PM,-32.8,-38.2,75,29.59,10.0,Calm,Calm,-,N/A,,Clear,0,2012-12-18 02:56:00
6:36 PM,-32.8,-38.2,75,29.57,10.0,Calm,Calm,-,N/A,,Clear,0,2012-12-18 03:36:00
6:56 PM,-32.8,-38.2,75,29.57,10.0,Calm,Calm,-,N/A,,Clear,0,2012-12-18 03:56:00
7:16 PM,-34.6,-38.2,82,29.56,10.0,Calm,Calm,-,N/A,,Clear,0,2012-12-18 04:16:00
7:36 PM,-32.8,-36.4,83,29.55,10.0,Calm,Calm,-,N/A,,Clear,0,2012-12-18 04:36:00
7:56 PM,-32.8,-36.4,83,29.54,10.0,SSW,3.5,-,N/A,,Clear,210,2012-12-18 04:56:00
8:16 PM,-31.0,-36.4,75,29.53,10.0,Calm,Calm,-,N/A,,Clear,0,2012-12-18 05:16:00
8:36 PM,-31.0,-36.4,75,29.52,10.0,Calm,Calm,-,N/A,,Clear,0,2012-12-18 05:36:00
8:56 PM,-31.0,-36.4,75,29.51,10.0,Calm,Calm,-,N/A,,Clear,0,2012-12-18 05:56:00
9:16 PM,-29.2,-34.6,75,29.50,10.0,Calm,Calm,-,N/A,,Clear,0,2012-12-18 06:16:00
9:36 PM,-29.2,-34.6,75,29.50,10.0,Calm,Calm,-,N/A,,Clear,0,2012-12-18 06:36:00
9:56 PM,-27.4,-32.8,75,29.49,10.0,Calm,Calm,-,N/A,,Clear,0,2012-12-18 06:56:00
10:16 PM,-25.6,-31.0,76,29.48,10.0,Calm,Calm,-,N/A,,Clear,0,2012-12-18 07:16:00
10:36 PM,-25.6,-27.4,91,29.47,10.0,Calm,Calm,-,N/A,,Clear,0,2012-12-18 07:36:00
10:56 PM,-20.2,-22.0,91,29.46,10.0,SSW,3.5,-,N/A,,Clear,210,2012-12-18 07:56:00
11:16 PM,-16.6,-20.2,84,29.45,10.0,Calm,Calm,-,N/A,,Clear,0,2012-12-18 08:16:00
11:36 PM,-11.2,-14.8,84,29.45,10.0,Calm,Calm,-,N/A,,Clear,0,2012-12-18 08:36:00
11:56 PM,-9.4,-9.4,100,29.43,10.0,SW,5.8,-,N/A,,Clear,230,2012-12-18 08:56:00